Hourly Weather Maceio

Today, 28 September, Monday

Time Temperature Precipitation Wind Pressure Humidity
00:00 +26°C° 0.3 mm 4 mps 760 mmHg 93%
01:00 +26°C° 0.3 mm 4 mps 759 mmHg 93%
02:00 +26°C° 0.2 mm 4 mps 759 mmHg 93%
03:00 +25°C° 0.2 mm 4 mps 759 mmHg 93%
04:00 +25°C° 0 mm 3 mps 758 mmHg 93%
05:00 +25°C° 0.2 mm 4 mps 759 mmHg 92%
06:00 +26°C° 0.2 mm 4 mps 759 mmHg 91%
07:00 +26°C° 0.2 mm 4 mps 759 mmHg 90%
08:00 +27°C° 0.2 mm 4 mps 759 mmHg 84%
09:00 +28°C° 0.2 mm 5 mps 760 mmHg 78%
10:00 +30°C° 0 mm 4 mps 760 mmHg 70%
11:00 +32°C° 0 mm 4 mps 760 mmHg 66%
12:00 +33°C° 0 mm 4 mps 759 mmHg 61%
13:00 +33°C° 0 mm 5 mps 759 mmHg 56%
14:00 +33°C° 0 mm 5 mps 759 mmHg 59%
15:00 +32°C° 0 mm 5 mps 758 mmHg 61%
16:00 +30°C° 0 mm 5 mps 758 mmHg 63%
17:00 +29°C° 0 mm 5 mps 758 mmHg 71%
18:00 +27°C° 0 mm 5 mps 759 mmHg 78%
19:00 +26°C° 0 mm 5 mps 759 mmHg 85%
20:00 +26°C° 0.1 mm 5 mps 760 mmHg 86%
21:00 +25°C° 0.1 mm 5 mps 760 mmHg 87%
22:00 +25°C° 0.1 mm 4 mps 761 mmHg 88%
23:00 +25°C° 0.1 mm 4 mps 760 mmHg 90%

Tomorrow, 29 September, Tuesday

Time Temperature Precipitation Wind Pressure Humidity
00:00 +25°C° 0.1 mm 4 mps 760 mmHg 91%
01:00 +23°C° 0.1 mm 4 mps 760 mmHg 92%
02:00 +23°C° 0 mm 4 mps 760 mmHg 91%
03:00 +23°C° 0 mm 4 mps 760 mmHg 91%
04:00 +23°C° 0 mm 4 mps 759 mmHg 90%
05:00 +23°C° 0 mm 4 mps 759 mmHg 89%
06:00 +23°C° 0 mm 4 mps 760 mmHg 87%
07:00 +23°C° 0 mm 4 mps 760 mmHg 86%
08:00 +26°C° 0 mm 4 mps 761 mmHg 78%
09:00 +27°C° 0 mm 5 mps 761 mmHg 70%
10:00 +29°C° 0 mm 5 mps 761 mmHg 62%
11:00 +30°C° 0 mm 5 mps 761 mmHg 59%
12:00 +30°C° 0 mm 5 mps 760 mmHg 56%
13:00 +32°C° 0 mm 5 mps 760 mmHg 53%
14:00 +32°C° 0 mm 5 mps 760 mmHg 55%
15:00 +30°C° 0 mm 5 mps 759 mmHg 58%
16:00 +30°C° 0 mm 5 mps 759 mmHg 60%
17:00 +28°C° 0 mm 5 mps 759 mmHg 66%
18:00 +27°C° 0 mm 4 mps 760 mmHg 73%
19:00 +25°C° 0 mm 4 mps 760 mmHg 79%
20:00 +25°C° 0 mm 4 mps 761 mmHg 82%
21:00 +25°C° 0 mm 4 mps 761 mmHg 84%
22:00 +23°C° 0 mm 4 mps 762 mmHg 87%
23:00 +23°C° 0 mm 4 mps 761 mmHg 87%

Day after tomorrow, 30 September, Wednesday

Time Temperature Precipitation Wind Pressure Humidity
00:00 +23°C° 0 mm 4 mps 761 mmHg 87%
01:00 +23°C° 0 mm 4 mps 761 mmHg 87%
02:00 +23°C° 0 mm 4 mps 760 mmHg 87%
03:00 +23°C° 0 mm 4 mps 760 mmHg 87%
04:00 +23°C° 0 mm 4 mps 760 mmHg 86%
05:00 +23°C° 0 mm 4 mps 760 mmHg 85%
06:00 +25°C° 0 mm 4 mps 760 mmHg 84%
07:00 +25°C° 0 mm 4 mps 761 mmHg 83%
08:00 +27°C° 0 mm 4 mps 761 mmHg 73%
09:00 +29°C° 0 mm 5 mps 762 mmHg 64%
10:00 +32°C° 0 mm 5 mps 762 mmHg 54%
11:00 +32°C° 0 mm 5 mps 762 mmHg 54%
12:00 +32°C° 0 mm 6 mps 761 mmHg 54%
13:00 +33°C° 0 mm 6 mps 761 mmHg 53%
14:00 +32°C° 0 mm 6 mps 760 mmHg 57%
15:00 +32°C° 0 mm 6 mps 760 mmHg 60%
16:00 +30°C° 0 mm 6 mps 760 mmHg 64%
17:00 +28°C° 0.1 mm 6 mps 760 mmHg 71%
18:00 +27°C° 0.1 mm 5 mps 760 mmHg 79%
19:00 +25°C° 0.1 mm 5 mps 760 mmHg 86%
20:00 +25°C° 0 mm 4 mps 760 mmHg 87%
21:00 +23°C° 0 mm 4 mps 761 mmHg 88%
22:00 +23°C° 0 mm 4 mps 761 mmHg 89%
23:00 +23°C° 0 mm 4 mps 761 mmHg 90%

1 October, Thursday

Time Temperature Precipitation Wind Pressure Humidity
00:00 +23°C° 0 mm 4 mps 760 mmHg 90%
01:00 +23°C° 0 mm 4 mps 760 mmHg 90%
02:00 +23°C° 0.2 mm 4 mps 760 mmHg 90%
03:00 +23°C° 0.2 mm 4 mps 760 mmHg 90%
04:00 +23°C° 0.2 mm 5 mps 759 mmHg 89%
05:00 +23°C° 0.2 mm 5 mps 760 mmHg 89%
06:00 +25°C° 0.2 mm 5 mps 760 mmHg 88%
07:00 +24°C° 0.2 mm 6 mps 760 mmHg 87%
08:00 +27°C° 0.1 mm 6 mps 761 mmHg 77%
09:00 +28°C° 0.1 mm 6 mps 761 mmHg 67%
10:00 +30°C° 0.1 mm 5 mps 762 mmHg 57%
11:00 +30°C° 0.1 mm 5 mps 761 mmHg 57%
12:00 +30°C° 0.1 mm 5 mps 760 mmHg 58%
13:00 +30°C° 0.1 mm 5 mps 760 mmHg 58%
14:00 +30°C° 0 mm 5 mps 759 mmHg 58%
15:00 +30°C° 0 mm 5 mps 759 mmHg 58%
16:00 +30°C° 0 mm 5 mps 759 mmHg 59%
17:00 +28°C° 0 mm 5 mps 759 mmHg 66%
18:00 +27°C° 0 mm 4 mps 759 mmHg 73%
19:00 +25°C° 0 mm 4 mps 760 mmHg 80%
20:00 +25°C° 0.1 mm 4 mps 760 mmHg 83%
21:00 +23°C° 0.1 mm 4 mps 760 mmHg 86%
22:00 +23°C° 0.1 mm 4 mps 761 mmHg 89%
23:00 +23°C° 0 mm 4 mps 760 mmHg 89%

2 October, Friday

Time Temperature Precipitation Wind Pressure Humidity
00:00 +23°C° 0 mm 4 mps 760 mmHg 88%
01:00 +23°C° 0 mm 4 mps 760 mmHg 88%
02:00 +22°C° 0.1 mm 3 mps 760 mmHg 88%
03:00 +22°C° 0.1 mm 3 mps 759 mmHg 88%
04:00 +22°C° 0.1 mm 3 mps 759 mmHg 88%
05:00 +24°C° 0.1 mm 3 mps 759 mmHg 87%
06:00 +24°C° 0.1 mm 3 mps 760 mmHg 86%
07:00 +25°C° 0.1 mm 4 mps 760 mmHg 85%
08:00 +26°C° 0.1 mm 4 mps 760 mmHg 79%
09:00 +27°C° 0.1 mm 5 mps 761 mmHg 73%
10:00 +29°C° 0.1 mm 5 mps 761 mmHg 67%
11:00 +30°C° 0.1 mm 5 mps 761 mmHg 61%
12:00 +32°C° 0.1 mm 5 mps 760 mmHg 56%
13:00 +33°C° 0.1 mm 5 mps 760 mmHg 51%
14:00 +32°C° 0.1 mm 5 mps 759 mmHg 53%
15:00 +30°C° 0.1 mm 5 mps 759 mmHg 56%
16:00 +30°C° 0.1 mm 5 mps 759 mmHg 58%
17:00 +28°C° 0 mm 4 mps 759 mmHg 65%
18:00 +27°C° 0 mm 4 mps 759 mmHg 71%
19:00 +25°C° 0 mm 4 mps 760 mmHg 77%
20:00 +25°C° 0 mm 4 mps 760 mmHg 80%
21:00 +23°C° 0 mm 4 mps 760 mmHg 83%
22:00 +23°C° 0 mm 4 mps 761 mmHg 86%
23:00 +23°C° 0 mm 4 mps 761 mmHg 87%

3 October, Saturday

Time Temperature Precipitation Wind Pressure Humidity
00:00 +22°C° 0 mm 3 mps 760 mmHg 88%
01:00 +22°C° 0 mm 3 mps 760 mmHg 89%
02:00 +22°C° 0 mm 3 mps 760 mmHg 90%
03:00 +22°C° 0 mm 3 mps 759 mmHg 90%
04:00 +22°C° 0 mm 3 mps 759 mmHg 90%
05:00 +22°C° 0 mm 3 mps 760 mmHg 89%
06:00 +24°C° 0 mm 3 mps 760 mmHg 87%
07:00 +24°C° 0 mm 3 mps 760 mmHg 85%
08:00 +26°C° 0.1 mm 4 mps 761 mmHg 76%
09:00 +28°C° 0.1 mm 4 mps 761 mmHg 67%
10:00 +30°C° 0.1 mm 5 mps 761 mmHg 57%
11:00 +32°C° 0.1 mm 5 mps 761 mmHg 56%
12:00 +32°C° 0.1 mm 5 mps 760 mmHg 55%
13:00 +32°C° 0.1 mm 5 mps 760 mmHg 53%
14:00 +32°C° 0 mm 5 mps 759 mmHg 55%
15:00 +32°C° 0 mm 5 mps 759 mmHg 56%
16:00 +30°C° 0 mm 5 mps 759 mmHg 57%
17:00 +28°C° 0 mm 4 mps 759 mmHg 65%
18:00 +27°C° 0 mm 4 mps 759 mmHg 72%
19:00 +25°C° 0 mm 4 mps 760 mmHg 79%
20:00 +25°C° 0 mm 4 mps 760 mmHg 82%
21:00 +23°C° 0 mm 4 mps 760 mmHg 85%
22:00 +23°C° 0 mm 4 mps 761 mmHg 88%
23:00 +23°C° 0 mm 4 mps 761 mmHg 88%
Show more